Precipitable_Water
0.40 0.44 0.43 0.53 0.60 0.71 0.75 0.76 0.72 0.75 0.80 0.94 0.95 0.89 0.91 0.98 0.93 0.88 0.85 0.86 0.87 0.90 1.00 1.09 1.14 1.19 1.24 1.36 1.44 1.45 1.41 1.47 1.50 1.49 1.47 1.54 1.54 1.62 1.79 2.00 2.03 2.02 2.05 2.06
0.22 0.28 0.47 0.52 0.52 0.65 0.70 0.70 0.73 0.83 0.92 0.84 0.88 0.83 0.94 0.98 0.98 0.99 0.97 0.91 0.93 0.94 0.98 1.05 1.14 1.14 1.12 1.23 1.43 1.48 1.44 1.47 1.53 1.57 1.46 1.48 1.55 1.78 1.77 2.16 2.00 2.06 2.01 1.89
0.16 0.19 0.41 0.41 0.48 0.58 0.66 0.63 0.68 0.73 0.88 0.95 0.88 0.76 0.84 1.00 1.08 1.08 1.10 1.15 1.08 1.01 0.96 1.06 1.13 1.16 1.13 1.23 1.36 1.44 1.46 1.44 1.53 1.61 1.51 1.56 1.60 1.73 1.77 1.64 1.87 1.98 2.09 1.96
0.16 0.18 0.25 0.34 0.33 0.43 0.50 0.64 0.68 0.70 0.77 0.67 0.92 0.51 0.66 0.85 0.94 0.96 1.05 1.10 1.05 1.05 1.03 1.04 1.13 1.17 1.16 1.24 1.41 1.51 1.53 1.42 1.48 1.57 1.46 1.46 1.46 1.43 1.55 1.55 1.78 1.99 2.13 2.10
0.13 0.18 0.24 0.26 0.28 0.34 0.36 0.59 0.57 0.66 0.69 0.72 0.63 0.61 0.62 0.75 0.80 0.88 0.94 1.00 1.03 1.03 1.01 1.05 1.07 1.19 1.29 1.38 1.42 1.54 1.59 1.48 1.49 1.47 1.46 1.50 1.50 1.52 1.65 1.78 1.80 1.92 2.03 2.09
0.17 0.22 0.23 0.22 0.25 0.25 0.35 0.47 0.51 0.65 0.64 0.50 0.63 0.56 0.50 0.61 0.63 0.79 0.86 0.94 0.96 1.05 1.05 1.05 1.07 1.15 1.28 1.43 1.47 1.51 1.60 1.54 1.48 1.50 1.50 1.55 1.56 1.48 1.49 1.72 1.67 1.82 1.92 2.01
0.15 0.16 0.21 0.24 0.21 0.24 0.33 0.37 0.28 0.33 0.39 0.37 0.49 0.47 0.45 0.62 0.73 0.79 0.81 0.90 0.94 1.11 1.06 1.02 1.02 1.07 1.24 1.37 1.45 1.46 1.52 1.51 1.48 1.48 1.51 1.59 1.60 1.62 1.61 1.64 1.68 1.77 1.85 1.87
0.12 0.10 0.19 0.22 0.20 0.20 0.22 0.26 0.25 0.25 0.30 0.30 0.51 0.40 0.38 0.59 0.79 0.85 0.78 0.91 0.99 1.07 1.12 1.05 1.07 1.10 1.20 1.39 1.50 1.55 1.44 1.48 1.54 1.53 1.49 1.58 1.72 1.68 1.64 1.69 1.74 1.75 1.72 1.83
0.11 0.10 0.20 0.20 0.20 0.18 0.15 0.17 0.25 0.24 0.29 0.25 0.31 0.39 0.45 0.58 0.67 0.74 0.79 0.84 0.89 0.96 1.07 1.05 1.15 1.23 1.20 1.34 1.47 1.54 1.47 1.47 1.46 1.46 1.50 1.49 1.57 1.66 1.61 1.69 1.74 1.73 1.75 1.83
0.13 0.12 0.16 0.18 0.20 0.20 0.18 0.16 0.15 0.19 0.17 0.16 0.25 0.32 0.33 0.43 0.50 0.63 0.69 0.78 0.86 1.03 1.15 1.16 1.18 1.26 1.28 1.35 1.46 1.62 1.57 1.45 1.38 1.48 1.53 1.58 1.63 1.68 1.73 1.67 1.65 1.65 1.66 1.75
0.17 0.14 0.15 0.18 0.17 0.17 0.17 0.15 0.14 0.17 0.16 0.12 0.14 0.21 0.34 0.43 0.53 0.56 0.65 0.78 0.89 0.97 1.05 1.14 1.28 1.39 1.31 1.36 1.53 1.58 1.55 1.52 1.41 1.44 1.53 1.64 1.70 1.85 1.87 1.65 1.68 1.78 1.83 1.76
0.21 0.17 0.15 0.17 0.21 0.22 0.20 0.18 0.15 0.13 0.12 0.16 0.18 0.19 0.38 0.48 0.53 0.58 0.62 0.74 0.89 1.04 0.82 1.08 1.24 1.44 1.38 1.42 1.78 1.37 1.69 1.50 1.44 1.48 1.55 1.62 1.70 1.77 1.74 1.71 1.69 1.76 1.76 1.81
0.27 0.18 0.15 0.18 0.18 0.19 0.17 0.21 0.19 0.16 0.15 0.13 0.16 0.19 0.42 0.54 0.56 0.59 0.67 0.77 0.81 1.01 0.89 1.06 0.89 1.03 1.26 1.47 1.72 1.61 1.53 1.62 1.43 1.53 1.55 1.60 1.67 1.73 1.70 1.68 1.75 1.70 1.76 1.80
0.31 0.25 0.18 0.18 0.18 0.21 0.20 0.21 0.22 0.17 0.13 0.13 0.18 0.22 0.36 0.44 0.54 0.63 0.69 0.79 0.91 0.99 1.01 1.04 0.90 1.05 1.26 1.47 1.63 1.68 1.42 1.67 1.49 1.54 1.58 1.56 1.70 1.75 1.75 1.60 1.66 1.77 1.82 1.80
0.35 0.28 0.22 0.23 0.25 0.24 0.22 0.24 0.24 0.21 0.16 0.13 0.17 0.27 0.40 0.47 0.48 0.65 0.73 0.84 0.97 1.05 0.95 0.86 0.72 0.97 1.18 1.33 1.52 1.68 1.70 1.59 1.54 1.53 1.58 1.62 1.72 1.72 1.80 1.72 1.73 1.86 1.84 1.77
0.43 0.25 0.22 0.20 0.23 0.24 0.24 0.26 0.27 0.23 0.19 0.17 0.20 0.20 0.33 0.57 0.56 0.63 0.73 0.89 0.96 1.01 0.93 0.85 0.87 0.96 1.15 1.32 1.45 1.60 1.62 1.47 1.65 1.60 1.60 1.68 1.62 1.57 1.49 1.45 1.40 1.56 1.65 1.70
0.44 0.30 0.21 0.18 0.22 0.26 0.22 0.26 0.27 0.26 0.23 0.21 0.18 0.21 0.34 0.54 0.73 0.83 0.85 0.90 0.88 0.85 0.85 0.92 0.92 1.04 1.24 1.43 1.51 1.52 1.53 1.61 1.68 1.57 1.52 1.41 1.32 1.28 1.32 1.44 1.47 1.56 1.71 1.72
0.57 0.43 0.33 0.24 0.24 0.19 0.25 0.32 0.34 0.29 0.35 0.33 0.25 0.24 0.39 0.66 0.84 0.95 1.05 0.97 0.98 1.01 0.94 0.94 1.04 1.19 1.42 1.52 1.59 1.61 1.58 1.65 1.62 1.47 1.31 1.17 1.17 1.28 1.38 1.42 1.40 1.29 1.23 1.26
0.64 0.50 0.38 0.30 0.26 0.26 0.28 0.32 0.36 0.32 0.35 0.43 0.33 0.39 0.56 0.75 0.83 0.90 1.04 1.05 0.99 1.13 1.24 1.33 1.35 1.39 1.47 1.50 1.59 1.54 1.64 1.62 1.40 1.20 1.11 1.11 1.13 1.09 1.11 1.14 1.27 1.40 1.31 1.24
0.58 0.54 0.45 0.38 0.30 0.25 0.30 0.40 0.50 0.48 0.35 0.54 0.51 0.51 0.56 0.64 0.54 0.69 1.03 1.16 1.16 1.28 1.36 1.48 1.64 1.46 1.44 1.52 1.63 1.61 1.59 1.33 1.09 1.15 1.22 1.28 1.32 1.33 1.34 1.34 1.33 1.28 1.23 1.25
0.43 0.45 0.42 0.39 0.36 0.37 0.53 0.53 0.57 0.36 0.37 0.64 0.68 0.80 0.79 0.68 0.70 0.88 1.18 1.26 1.41 1.43 1.38 1.60 1.73 1.67 1.50 1.61 1.67 1.54 1.31 1.09 1.28 1.47 1.53 1.52 1.55 1.42 1.35 1.31 1.24 1.29 1.32 1.42
0.48 0.44 0.44 0.47 0.38 0.32 0.64 0.54 0.47 0.60 0.73 0.70 0.68 0.81 0.84 0.87 0.94 1.12 1.25 1.31 1.41 1.34 1.41 1.50 1.67 1.79 1.72 1.64 1.52 1.23 1.14 1.39 1.53 1.51 1.51 1.46 1.40 1.34 1.31 1.38 1.39 1.39 1.44 1.41
0.51 0.58 0.53 0.53 0.54 0.69 0.71 0.67 0.73 0.82 0.82 0.84 0.72 0.87 0.86 0.88 0.89 1.01 1.04 1.03 1.07 1.19 1.21 1.56 1.68 1.68 1.73 1.49 1.31 1.23 1.35 1.42 1.47 1.45 1.42 1.33 1.35 1.39 1.39 1.31 1.38 1.42 1.50 1.37
0.72 0.79 0.68 0.65 0.68 0.71 0.72 0.81 0.81 0.86 0.93 0.98 0.99 0.88 0.96 0.95 0.98 0.83 0.83 0.87 1.09 1.57 1.37 1.44 1.66 1.48 1.34 1.37 1.38 1.33 1.34 1.41 1.40 1.39 1.44 1.54 1.54 1.49 1.50 1.58 1.58 1.50 1.28 1.12
0.75 0.77 0.72 0.73 0.70 0.70 0.71 0.80 0.84 0.86 0.95 1.10 1.12 1.05 0.93 0.94 0.83 0.87 0.95 1.05 1.13 1.19 1.26 1.51 1.54 1.40 1.27 1.40 1.40 1.48 1.59 1.68 1.59 1.69 1.78 1.73 1.63 1.60 1.53 1.56 1.42 1.27 1.22 1.16
0.83 0.76 0.69 0.67 0.81 0.75 0.71 0.83 1.01 0.91 1.00 1.18 1.11 1.02 1.05 0.88 0.91 1.14 1.20 1.20 1.33 1.41 1.54 1.51 1.54 1.59 1.51 1.59 1.76 1.88 1.95 1.79 1.77 1.80 1.76 1.69 1.58 1.50 1.45 1.35 1.25 1.27 1.20 1.12
Wind_Speed
15 12 12 11 8 6 6 7 6 8 6 5 5 4 7 7 7 6 4 4 5 5 7 10 10 11 10 10 10 9 8 8 8 8 8 5 5 5 4 4 4 3 2 3
14 16 17 10 8 9 9 6 3 0 6 6 6 4 6 6 7 7 6 6 6 4 8 9 10 10 10 11 10 9 9 9 8 8 8 6 6 6 5 5 4 5 3 2
15 16 15 13 10 9 8 7 3 3 1 3 7 2 5 6 6 9 10 7 8 7 9 10 10 10 11 11 10 8 9 9 9 8 8 7 6 5 6 5 5 5 3 2
17 17 18 15 13 10 11 10 7 6 7 7 9 6 9 7 9 10 13 12 12 9 9 11 11 11 11 11 10 8 7 9 9 8 8 8 7 6 5 5 6 5 4 2
17 15 15 15 16 14 16 15 11 4 7 5 9 5 9 8 11 8 14 15 15 13 11 11 12 13 12 11 10 9 8 8 9 9 9 8 8 7 7 5 6 7 5 3
20 18 17 17 15 13 10 15 6 7 5 6 12 7 9 8 14 13 14 15 17 16 14 11 12 12 12 12 10 10 9 8 9 9 9 8 8 7 7 6 6 8 5 4
16 19 18 17 12 11 10 8 8 7 8 8 7 7 11 16 13 9 13 15 18 19 15 13 13 13 13 13 11 9 9 8 9 9 9 9 8 8 8 7 8 8 7 6
15 15 17 16 15 14 13 12 11 10 9 9 6 8 10 9 12 8 7 12 16 19 18 16 15 13 13 14 13 11 10 9 9 10 9 9 8 9 9 8 8 9 8 8
14 16 16 15 13 12 13 16 15 11 10 9 11 10 9 3 7 9 10 13 14 17 19 18 15 15 13 14 15 14 11 10 10 9 8 8 10 11 9 10 9 9 9 8
14 13 17 16 13 16 15 12 12 11 11 12 12 11 8 7 9 11 10 15 10 11 15 18 16 16 13 14 14 14 14 11 10 9 8 7 8 11 12 11 10 10 9 9
11 13 15 12 14 17 15 12 12 12 11 10 9 12 13 12 11 11 11 12 13 14 10 17 17 16 14 13 14 14 13 12 10 9 7 6 5 8 13 13 12 10 10 10
14 11 14 15 10 13 16 15 13 14 14 10 9 11 10 14 13 11 13 10 13 17 9 15 16 16 16 13 15 8 14 11 10 9 7 6 5 4 7 12 12 11 10 10
10 12 14 12 10 9 15 11 10 14 12 15 10 12 8 11 13 13 11 10 15 16 14 15 13 16 15 16 15 12 10 13 10 8 6 6 5 5 5 7 11 12 11 10
8 10 14 14 13 8 9 13 13 12 14 13 12 14 12 13 14 14 11 11 14 17 16 15 14 17 15 16 14 16 8 12 10 8 7 6 6 7 7 6 8 9 10 10
9 12 14 16 14 12 12 13 16 15 17 14 14 7 11 14 11 14 14 13 15 16 12 12 12 15 15 16 15 14 12 12 10 7 7 7 7 7 8 8 8 9 9 9
7 9 12 15 13 10 12 11 10 14 13 14 17 16 13 14 9 13 15 15 17 16 13 13 11 13 14 17 15 13 13 12 10 7 6 6 7 8 8 9 9 9 9 10
4 5 9 13 12 11 11 11 8 11 15 17 13 18 16 12 11 10 12 15 16 15 14 14 14 15 15 17 16 14 13 12 9 7 6 6 7 7 7 7 7 8 8 8
9 5 8 11 10 11 15 11 10 10 10 11 13 16 15 16 15 11 11 13 12 13 14 15 14 14 15 16 16 15 13 12 9 6 5 4 5 6 6 5 5 4 4 5
12 8 8 9 13 14 13 10 9 8 11 10 10 13 18 19 14 12 12 13 12 11 11 13 15 16 16 17 16 15 14 13 10 6 4 4 6 5 5 4 3 3 4 6
12 11 10 9 10 13 15 11 10 10 8 9 9 14 19 17 14 17 16 15 13 12 12 12 15 17 17 18 17 16 14 13 10 8 6 5 6 6 4 3 3 4 6 9
12 11 11 12 14 14 11 13 11 10 14 10 10 12 14 15 15 15 17 16 15 14 14 14 17 20 19 19 18 17 15 13 11 9 7 5 5 5 4 4 5 7 9 11
14 12 13 10 10 12 7 8 8 10 10 12 12 15 13 13 13 15 16 18 20 21 18 22 25 22 22 20 19 17 16 14 12 9 7 6 5 5 4 5 7 10 11 12
15 16 15 14 13 13 11 12 10 7 11 12 14 14 15 13 11 12 14 18 21 22 20 27 27 22 23 21 20 18 16 15 13 10 8 7 6 6 7 8 10 11 12 14
15 15 14 14 16 13 14 12 8 7 7 10 14 17 17 13 12 9 8 7 7 16 29 33 21 21 22 21 20 19 18 16 14 11 9 7 7 8 8 10 11 12 13 13
18 15 16 19 18 16 16 14 12 10 10 5 11 15 15 13 10 7 8 6 10 21 26 23 19 19 20 20 20 20 18 16 14 12 10 9 9 8 9 10 11 11 12 13
18 17 18 19 21 18 17 17 19 12 10 9 10 17 14 13 12 10 11 11 15 15 18 19 17 17 17 17 16 21 20 18 15 11 9 9 9 9 9 9 9 12 12 13
Wind_Direction
215 207 212 197 207 214 164 145 175 206 195 166 187 148 163 171 169 177 177 177 184 183 184 182 185 189 185 186 187 192 194 197 192 194 195 198 199 190 190 195 180 190 150 155
222 217 214 214 202 187 180 176 210 213 172 163 180 176 174 188 200 197 200 207 198 183 180 180 181 183 186 185 187 189 193 191 194 194 194 195 191 197 198 190 185 175 158 157
214 220 213 215 196 190 213 227 217 149 143 210 172 262 234 226 231 232 232 229 206 189 185 190 183 183 181 182 181 185 191 191 191 192 193 184 183 192 198 198 187 183 187 190
223 223 220 223 218 214 226 222 220 241 213 220 226 247 269 246 254 252 226 217 208 199 194 193 189 185 181 184 183 179 181 186 190 190 191 191 193 190 198 203 198 203 198 191
222 217 218 224 229 222 237 220 228 225 195 200 238 244 276 250 275 232 224 215 206 199 193 192 192 193 193 188 190 187 182 185 190 195 196 203 208 215 211 218 214 201 210 209
225 223 223 225 237 231 226 210 239 230 223 260 237 234 271 248 243 233 222 211 204 199 197 195 191 190 192 192 193 195 193 194 194 197 200 204 208 210 206 210 204 203 214 211
233 231 229 226 232 221 203 205 234 232 220 225 247 250 263 249 240 234 209 206 204 201 198 198 191 191 192 190 190 195 197 200 201 205 207 211 213 210 208 211 206 201 205 209
218 234 214 220 220 224 227 219 221 229 228 250 265 256 280 260 223 218 205 204 204 202 204 201 197 194 198 199 199 200 201 203 204 206 213 218 221 220 218 217 213 215 221 225
214 230 222 224 233 222 245 232 231 230 241 248 259 271 290 252 212 207 209 201 194 200 204 205 204 206 205 205 205 202 203 203 200 207 216 227 232 228 224 221 222 226 230 231
223 225 220 228 236 240 226 230 229 239 232 243 255 259 255 246 224 220 212 197 202 206 209 211 209 209 212 210 208 209 208 204 205 209 220 234 244 234 229 225 225 227 223 221
206 210 227 228 238 232 222 239 226 219 224 226 239 255 254 235 218 219 219 204 198 189 203 211 207 210 212 211 206 206 205 209 208 208 219 234 250 242 229 221 222 222 223 222
216 211 218 232 238 226 213 225 221 222 237 235 230 258 265 220 213 215 213 195 197 194 201 201 206 217 219 209 195 211 207 207 213 211 219 231 240 226 212 216 219 222 222 226
214 231 232 259 247 230 223 232 231 227 230 236 228 252 263 206 217 220 203 214 209 202 208 218 214 207 210 208 209 150 214 209 210 207 214 225 225 218 211 215 217 222 228 236
222 228 219 222 221 224 229 243 246 225 227 231 239 258 228 215 212 225 213 221 204 205 212 218 213 204 210 207 203 208 206 199 205 213 219 225 227 227 220 219 215 219 231 245
241 242 225 220 224 233 232 244 257 225 225 219 234 258 201 210 222 211 208 203 196 195 208 203 205 205 207 203 203 206 209 203 206 215 225 235 236 235 232 233 230 231 242 258
279 246 220 228 236 243 249 258 254 225 229 233 224 232 228 233 222 202 200 197 198 208 211 214 211 210 207 202 202 202 203 202 210 223 232 238 233 234 232 236 235 242 253 265
263 254 223 232 233 240 245 236 253 237 240 230 222 233 222 218 200 197 198 203 206 216 217 215 219 215 208 202 201 202 200 204 212 223 235 245 235 228 228 227 232 246 262 275
251 248 227 227 227 234 229 242 257 246 239 249 234 228 217 197 194 202 208 208 223 231 224 213 210 209 202 198 198 197 197 201 205 221 232 229 213 208 210 218 229 239 258 279
232 234 236 222 221 236 243 241 255 236 256 255 230 193 187 194 199 213 221 220 214 215 214 214 208 196 196 194 195 196 197 197 202 206 210 198 185 180 180 187 213 247 278 297
228 225 223 223 225 225 228 249 252 249 259 252 212 195 194 206 217 231 234 221 216 213 209 208 206 196 197 196 195 193 194 193 194 191 184 181 183 181 188 207 240 277 294 301
235 239 228 229 231 238 235 253 263 232 238 231 206 206 206 218 234 230 230 233 224 215 204 218 207 203 200 198 195 193 190 190 190 191 189 188 188 194 216 246 277 292 300 305
224 224 228 227 231 223 243 237 234 254 238 215 223 217 219 225 236 233 232 234 233 231 246 246 201 203 197 194 190 190 191 194 196 198 196 201 211 227 251 272 288 298 302 306
229 227 226 221 229 230 235 226 246 233 243 250 215 216 215 218 230 230 244 252 255 241 229 187 183 190 188 191 193 194 197 196 199 206 213 222 234 248 268 282 291 298 305 309
232 233 229 232 235 239 237 225 229 250 251 263 234 218 207 213 228 234 238 239 278 190 173 177 182 187 189 194 198 201 201 202 207 215 221 233 243 263 277 287 297 302 307 309
229 235 232 237 240 249 239 227 237 252 249 268 207 190 194 191 200 191 178 163 139 147 161 172 184 189 194 200 206 209 209 210 212 218 230 240 260 272 287 295 301 306 310 310
226 231 232 241 235 237 243 245 234 243 237 222 204 204 196 193 188 176 167 165 164 166 177 184 188 185 196 204 222 214 212 212 214 223 236 251 263 274 282 292 301 314 311 317